Location: Hochstatterhof
(48.7256°N, 10.3487°E)
Time: 01:21:42
(UTC+00:00)

Timation 1 Rocket - Pass Details

Date: 26 September 2023
Orbit: 895 x 910 km, 70.0° (Epoch: 04 December)

Event Time Altitude Azimuth Distance (km) Brightness Sun altitude
Exits shadow 04:00:07 - 215° (SW) 2,899 6.6 -12.3°
Reaches altitude 10° 04:01:01 10° 215° (SW) 2,563 6.3 -12.2°
Maximum altitude 04:06:56 75° 301° (WNW) 931 4.3 -11.2°
Drops below altitude 10° 04:12:55 10° 28° (NNE) 2,584 7.3 -10.2°
Sets 04:15:26 0° 30° (NNE) 3,531 8.1 -9.8°
